1504296001.03,61267,24.31,73920.5,7.19,-5.03,-4.37,0,*70
1504296002.26,61268,24.31,73920.5,7.19,-4.93,-4.29,0,*78
1504296003.5,61269,24.31,73920.5,7.19,-4.81,-4.25,0,*76
1504296004.73,61270,24.31,73916.3,7.19,-4.77,-4.37,0,*74
1504296005.94,61271,24.31,73920.3,7.19,-4.57,-4.29,0,*78
1504296007.14,61272,24.31,73922.0,7.21,-4.25,-4.13,0,*7C
1504296008.34,61273,24.31,73918.5,7.21,-4.13,-4.21,0,*79
1504296009.56,61274,24.31,73916.8,7.17,-4.01,-4.37,0,*7F
1504296010.77,61275,24.31,73918.0,7.17,-3.91,-4.29,0,*7F
1504296011.99,61276,24.31,73908.8,7.17,-4.01,-4.29,0,*72
1504296013.18,61277,24.31,73900.0,7.17,-4.05,-4.29,0,*77
1504296014.36,61278,24.31,73902.8,7.17,-4.13,-4.17,0,*72
1504296015.56,61279,24.31,73910.8,7.17,-4.13,-4.25,0,*72
1504296016.75,61280,24.31,73912.5,7.17,-4.13,-4.29,0,*78
1504296017.97,61281,24.31,73910.5,7.15,-4.05,-4.29,0,*7C
1504296019.2,61282,24.31,73906.3,7.15,-3.95,-4.21,0,*79
1504296020.42,61283,24.31,73896.0,7.15,-3.91,-4.17,0,*79
1504296021.65,61284,24.31,73902.5,7.15,-4.21,-4.29,0,*7F
1504296022.87,61285,24.31,73906.0,7.15,-4.17,-4.21,0,*73
1504296024.1,61286,24.31,73902.5,7.15,-4.21,-4.29,0,*7D
1504296025.32,61287,24.31,73906.8,7.15,-4.21,-4.41,0,*72
1504296026.54,61288,24.31,73868.5,7.15,-4.33,-4.41,0,*7E
1504296027.76,61289,24.31,73878.3,7.15,-4.29,-4.41,0,*74
1504296028.98,61290,24.31,73886.3,7.15,-4.17,-4.33,0,*74
1504296030.17,61291,24.31,73894.0,7.13,-4.09,-4.41,0,*79
1504296031.37,61292,24.31,73894.0,7.13,-3.91,-4.41,0,*7C
1504296032.56,61293,24.31,73902.5,7.13,-3.91,-4.41,0,*7D
1504296033.76,61294,24.31,73906.5,7.13,-3.79,-4.45,0,*78
1504296034.96,61295,24.31,73910.3,7.13,-3.75,-4.53,0,*72
1504296036.17,61296,24.31,73906.0,7.13,-3.67,-4.41,0,*71
1504296037.39,61297,24.31,73904.3,7.13,-3.63,-4.41,0,*74
1504296038.6,61298,24.31,73896.8,7.13,-3.43,-4.29,0,*77
1504296039.79,61299,24.31,73896.3,7.13,-3.39,-4.09,0,*79
1504296040.98,61300,24.31,73886.8,7.13,-3.27,-3.95,0,*75
1504296042.2,61301,24.31,73890.0,7.11,-3.11,-3.83,0,*74
1504296043.4,61302,24.31,73898.3,7.13,-3.03,-3.71,0,*7B
1504296044.6,61303,24.31,73904.0,7.13,-3.03,-3.67,0,*7D
1504296045.81,61304,24.31,73910.3,7.13,-2.83,-3.63,0,*77
1504296047.01,61305,24.31,73896.5,7.13,-2.91,-3.67,0,*71
1504296048.24,61306,24.31,73896.3,7.13,-2.75,-3.63,0,*7C
1504296049.46,61307,24.31,73890.8,7.11,-2.79,-3.71,0,*70
1504296050.69,61308,24.31,73900.8,7.13,-2.75,-3.67,0,*76
1504296051.93,61309,24.31,73908.3,7.13,-2.55,-3.51,0,*70
1504296053.18,61310,24.31,73900.8,7.11,-2.59,-3.59,0,*7E
1504296054.44,61311,24.31,73906.8,7.11,-2.55,-3.55,0,*7F
1504296055.62,61312,24.31,73914.5,7.13,-2.31,-3.39,0,*76
1504296056.84,61313,24.31,73914.3,7.11,-2.31,-3.35,0,*79
1504296058.02,61314,24.31,73914.3,7.13,-2.19,-3.31,0,*72
1504296059.22,61315,24.31,73918.5,7.11,-2.19,-3.23,0,*72
1504296060.45,61316,24.31,73916.8,7.11,-2.11,-3.23,0,*79
1504296061.69,61317,24.31,73914.5,7.11,-2.07,-3.07,0,*79
1504296062.93,61318,24.31,73910.0,7.11,-2.03,-3.07,0,*72
1504296064.14,61319,24.31,73914.3,7.09,-1.99,-3.15,0,*79
1504296065.38,61320,24.31,73916.3,7.11,-1.83,-2.95,0,*78
1504296066.6,61321,24.31,73916.8,7.11,-1.71,-2.95,0,*74
1504296067.81,61322,24.31,73908.8,7.11,-1.79,-2.95,0,*7F
1504296069.03,61323,24.31,73912.5,7.11,-1.71,-2.95,0,*76
1504296070.24,61324,24.31,73912.8,7.11,-1.67,-2.95,0,*76
1504296071.43,61325,24.31,73914.8,7.13,-1.55,-2.79,0,*76
1504296072.69,61326,24.31,73914.5,7.11,-1.47,-2.67,0,*7B
1504296073.93,61327,24.31,73918.5,7.11,-1.55,-2.71,0,*7E
1504296075.2,61328,24.31,73914.3,7.11,-1.43,-2.71,0,*76
1504296076.42,61329,24.31,73914.0,7.13,-1.33,-2.55,0,*74
1504296077.66,61330,24.31,73918.0,7.11,-1.25,-2.47,0,*7A
1504296078.9,61331,24.31,73914.3,7.11,-1.25,-2.47,0,*7B
1504296080.14,61332,24.31,73916.0,7.11,-1.25,-2.47,0,*78
1504296081.35,61333,24.31,73916.0,7.11,-1.17,-2.43,0,*7C
1504296082.57,61334,24.31,73922.5,7.11,-1.21,-2.43,0,*7E
1504296083.78,61335,24.31,73912.8,7.13,-1.13,-2.31,0,*79
1504296085.03,61336,24.31,73912.3,7.11,-1.05,-2.23,0,*7C
1504296086.27,61337,24.31,73914.8,7.11,-0.97,-2.23,0,*47
1504296087.5,61338,24.31,73914.5,7.11,-0.97,-2.19,0,*41
1504296088.76,61339,24.31,73916.0,7.11,-0.85,-1.99,0,*48
1504296089.99,61340,24.31,73916.0,7.11,-0.81,-1.95,0,*4E
1504296091.25,61341,24.31,73916.8,7.11,-0.85,-2.11,0,*44
1504296092.46,61342,24.31,73920.8,7.13,-0.69,-1.91,0,*4C
1504296093.69,61343,24.31,73928.3,7.11,-0.69,-1.95,0,*4B
1504296094.92,61344,24.31,73924.0,7.11,-0.73,-1.83,0,*40
1504296096.13,61345,24.31,73928.0,7.11,-0.57,-1.79,0,*42
1504296097.37,61346,24.31,73922.5,7.11,-0.57,-1.83,0,*44
1504296098.58,61347,24.31,73924.3,7.11,-0.57,-1.71,0,*48
1504296099.76,61348,24.31,73926.8,7.09,-0.53,-1.63,0,*49
1504296100.95,61349,24.31,73926.8,7.09,-0.37,-1.63,0,*4A
1504296102.18,61350,24.31,73926.8,7.11,-0.33,-1.47,0,*49
1504296103.43,61351,24.31,73922.3,7.11,-0.23,-1.47,0,*49
1504296104.69,61352,24.31,73922.0,7.11,-0.23,-1.43,0,*4E
1504296105.93,61353,24.31,73926.8,7.11,-0.11,-1.35,0,*4F
1504296107.14,61354,24.31,73926.8,7.13,-0.19,-1.35,0,*42
1504296108.34,61355,24.31,73926.0,7.11,-0.07,-1.33,0,*78
1504296109.53,61356,24.31,73920.0,7.11,-0.07,-1.33,0,*7B
1504296110.72,61357,24.31,73914.3,7.11,0.01,-1.25,0,*56
1504296111.91,61358,24.31,73912.0,7.11,0.01,-1.21,0,*5D
1504296113.11,61359,24.31,73922.0,7.11,0.01,-1.21,0,*5C
1504296114.33,61360,24.31,73920.3,7.13,0.17,-1.01,0,*61
1504296115.55,61361,24.31,73918.5,7.11,0.05,-1.09,0,*59
1504296116.76,61362,24.31,73920.3,7.11,0.05,-0.97,0,*6C
1504296118.0,61363,24.31,73922.8,7.11,0.13,-0.85,0,*59
1504296119.21,61364,24.31,73918.5,7.11,0.13,-0.73,0,*57
1504296120.43,61365,24.31,73920.3,7.11,0.13,-0.69,0,*5D
1504296121.64,61366,24.31,73920.0,7.11,0.17,-0.69,0,*5A
1504296122.86,61367,24.31,73922.0,7.11,0.25,-0.49,0,*58
1504296124.09,61368,24.31,73920.0,7.11,0.29,-0.41,0,*53
1504296125.28,61369,24.31,73926.3,7.11,0.43,-0.19,0,*53
1504296126.49,61370,24.31,73930.3,7.11,0.55,0.01,0,*48
1504296127.71,61371,24.31,73924.5,7.13,0.83,0.17,0,*77
1504296128.91,61372,24.25,73916.5,7.11,1.01,0.43,0,*4C
1504296130.16,61373,24.31,73920.8,7.11,1.37,0.75,0,*4D
1504296131.41,61374,24.31,73918.8,7.11,1.59,1.09,0,*78
1504296132.64,61375,24.31,73922.3,7.13,1.93,1.51,0,*70
1504296133.88,61376,24.31,73916.8,7.11,2.25,1.89,0,*7A
1504296135.09,61377,24.31,73914.8,7.11,2.69,2.31,0,*73
1504296136.35,61378,24.31,73910.8,7.11,3.07,2.73,0,*73
1504296137.6,61379,24.31,73910.0,7.11,3.45,3.37,0,*75
1504296138.78,61380,24.31,73908.0,7.13,3.81,3.81,0,*74
1504296139.99,61381,24.31,73912.5,7.11,4.11,4.33,0,*77
1504296141.19,61382,24.31,73910.3,7.11,4.33,4.49,0,*79
1504296142.44,61383,24.31,73906.8,7.11,4.59,4.79,0,*77
1504296143.65,61384,24.31,73910.8,7.13,4.93,5.07,0,*7C
1504296144.86,61385,24.31,73906.5,7.13,5.01,5.11,0,*70
1504296146.06,61386,24.31,73906.8,7.11,5.07,5.29,0,*7C
1504296147.26,61387,24.31,73906.8,7.13,5.33,5.51,0,*77
1504296148.44,61388,24.31,73906.5,7.13,5.37,5.63,0,*7D
1504296149.68,61389,24.31,73908.0,7.11,5.51,5.73,0,*7F
1504296150.92,61390,24.31,73906.5,7.11,5.51,5.73,0,*77
1504296152.12,61391,24.31,73904.8,7.13,5.67,5.77,0,*75
1504296153.32,61392,24.31,73906.0,7.13,5.67,5.81,0,*7F
1504296154.54,61393,24.31,73906.3,7.13,5.77,5.81,0,*7F
1504296155.76,61394,24.31,73904.8,7.13,5.77,5.81,0,*78
1504296157.01,61395,24.31,73902.8,7.15,5.77,5.89,0,*77
1504296158.26,61396,24.31,73902.0,7.15,5.81,5.81,0,*75
1504296159.49,61397,24.31,73900.8,7.15,5.81,5.71,0,*7B
1504296160.7,61398,24.31,73904.0,7.15,5.71,5.67,0,*7C
1504296161.93,61399,24.25,73900.5,7.15,5.71,5.55,0,*7C
1504296163.18,61400,24.31,73908.5,7.15,5.77,5.51,0,*79
1504296164.39,61401,24.31,73904.0,7.15,5.71,5.41,0,*7F
1504296165.59,61402,24.25,73904.0,7.15,5.63,5.29,0,*71
1504296166.82,61403,24.31,73910.8,7.15,5.51,5.19,0,*72
1504296168.04,61404,24.31,73910.0,7.15,5.41,5.19,0,*74
1504296169.24,61405,24.31,73910.0,7.15,5.29,5.11,0,*73
1504296170.45,61406,24.25,73908.8,7.17,5.23,5.01,0,*79
1504296171.72,61407,24.25,73908.3,7.15,5.01,4.75,0,*78
1504296172.92,61408,24.25,73908.8,7.17,4.85,4.75,0,*78
1504296174.18,61409,24.31,73910.8,7.15,4.63,4.59,0,*7D
1504296175.36,61410,24.25,73908.0,7.17,4.45,4.41,0,*7A
1504296176.59,61411,24.31,73910.5,7.15,4.19,4.31,0,*77
1504296177.82,61412,24.31,73906.3,7.15,4.05,4.11,0,*7B
1504296179.06,61413,24.31,73904.3,7.15,3.89,4.01,0,*78
1504296180.26,61414,24.31,73904.3,7.19,3.81,3.93,0,*77
1504296181.43,61415,24.31,73908.3,7.17,3.59,3.85,0,*7A
1504296182.69,61416,24.31,73908.8,7.15,3.41,3.71,0,*79
1504296183.87,61417,24.25,73910.8,7.17,3.25,3.59,0,*72
1504296185.14,61418,24.31,73914.0,7.15,3.07,3.41,0,*76
1504296186.37,61419,24.31,73916.5,7.15,2.95,3.33,0,*78
1504296187.62,61420,24.31,73916.0,7.15,2.77,3.19,0,*76
1504296188.85,61421,24.25,73916.8,7.15,2.61,3.07,0,*7F
1504296190.08,61422,24.31,73922.3,7.15,2.51,2.95,0,*75
1504296191.34,61423,24.31,73920.8,7.15,2.39,2.85,0,*7B
1504296192.57,61424,24.31,73922.0,7.17,2.39,2.73,0,*77
1504296193.75,61425,24.25,73922.3,7.17,2.31,2.61,0,*7D
1504296194.95,61426,24.25,73920.5,7.17,2.27,2.55,0,*7E
1504296196.21,61427,24.31,73920.8,7.15,2.25,2.59,0,*73
1504296197.42,61428,24.25,73922.5,7.17,2.27,2.43,0,*77
1504296198.62,61429,24.25,73922.0,7.17,2.27,2.39,0,*7B
1504296199.79,61430,24.31,73928.8,7.17,2.31,2.31,0,*7C
1504296200.99,61431,24.25,73928.0,7.19,2.31,2.31,0,*73
1504296202.19,61432,24.25,73926.3,7.19,2.27,2.31,0,*77
1504296203.39,61433,24.25,73920.8,7.17,2.27,2.21,0,*79
1504296204.62,61434,24.31,73920.0,7.17,2.09,2.09,0,*78
1504296205.84,61435,24.31,73918.5,7.17,2.05,2.05,0,*79
1504296207.07,61436,24.25,73914.8,7.17,2.21,2.09,0,*70
1504296208.33,61437,24.25,73912.3,7.15,2.13,2.17,0,*7D
1504296209.55,61438,24.25,73914.0,7.19,2.09,2.27,0,*76
1504296210.78,61439,24.31,73914.3,7.19,2.31,2.51,0,*7D
1504296212.01,61440,24.25,73908.0,7.19,2.27,2.73,0,*74
1504296213.24,61441,24.31,73916.3,7.19,2.27,2.81,0,*78
1504296214.42,61442,24.25,73916.0,7.21,2.31,2.95,0,*72
1504296215.62,61443,24.25,73910.0,7.19,2.31,2.91,0,*7C
1504296216.85,61444,24.31,73908.3,7.17,1.97,2.89,0,*73
1504296218.08,61445,24.31,73904.3,7.19,2.05,2.91,0,*7D
1504296219.31,61446,24.31,73898.0,7.19,1.97,2.91,0,*76
1504296220.56,61447,24.31,73896.8,7.19,2.09,3.03,0,*79
1504296221.82,61448,24.25,73888.8,7.19,2.17,3.15,0,*7E
1504296223.05,61449,24.31,73888.0,7.19,2.17,3.25,0,*7C
1504296224.28,61450,24.25,73892.8,7.19,2.21,3.25,0,*71
1504296225.49,61451,24.31,73900.5,7.17,2.17,3.25,0,*7B
1504296226.69,61452,24.31,73904.5,7.17,2.27,3.37,0,*78
1504296227.92,61453,24.31,73912.5,7.19,2.27,3.33,0,*73
1504296229.13,61454,24.31,73906.5,7.17,2.31,3.33,0,*7D
1504296230.36,61455,24.31,73908.5,7.17,2.17,3.45,0,*79
1504296231.57,61456,24.31,73908.8,7.17,2.43,3.59,0,*76
1504296232.75,61457,24.25,73902.0,7.17,2.65,3.81,0,*76
1504296233.95,61458,24.31,73904.0,7.17,2.89,4.15,0,*71
1504296235.16,61459,24.25,73904.0,7.17,3.03,4.41,0,*72
1504296236.41,61460,24.31,73910.0,7.19,3.49,4.75,0,*7F
1504296237.67,61461,24.31,73908.5,7.19,3.75,5.05,0,*77
1504296238.88,61462,24.31,73906.0,7.21,4.01,5.19,0,*76
1504296240.09,61463,24.25,73904.0,7.19,4.19,5.23,0,*7C
1504296241.35,61464,24.25,73904.0,7.19,4.31,5.27,0,*75
1504296242.55,61465,24.25,73902.3,7.21,4.41,5.27,0,*78
1504296243.76,61466,24.25,73902.8,7.19,4.41,5.23,0,*74
1504296244.97,61467,24.25,73902.8,7.19,4.41,5.23,0,*75
1504296246.16,61468,24.25,73906.0,7.21,4.37,5.15,0,*75
1504296247.37,61469,24.31,73908.3,7.21,4.23,5.05,0,*70
1504296248.57,61470,24.25,73906.3,7.21,3.97,4.89,0,*75
1504296249.78,61471,24.31,73910.8,7.21,3.89,4.79,0,*74
1504296251.02,61472,24.25,73912.3,7.19,3.71,4.57,0,*77
1504296252.22,61473,24.25,73914.0,7.19,3.59,4.33,0,*7E
1504296253.45,61474,24.31,73904.0,7.19,3.37,4.07,0,*76
1504296254.63,61475,24.31,73914.3,7.21,3.29,3.85,0,*7E
1504296255.86,61476,24.25,73914.8,7.25,3.23,3.71,0,*78
1504296257.08,61477,24.25,73912.5,7.25,3.23,3.53,0,*79
1504296258.31,61478,24.31,73918.3,7.25,3.11,3.23,0,*70
1504296259.49,61479,24.25,73912.8,7.25,2.95,2.99,0,*7C
1504296260.71,61480,24.25,73908.0,7.25,2.89,2.81,0,*7E
1504296261.94,61481,24.25,73906.8,7.25,2.69,2.59,0,*74
1504296263.17,61482,24.31,73910.0,7.25,2.51,2.39,0,*7A
1504296264.4,61483,24.25,73906.0,7.25,2.47,2.25,0,*71
1504296265.63,61484,24.25,73906.5,7.25,2.39,2.13,0,*7A
1504296266.83,61485,24.25,73906.3,7.21,2.31,1.93,0,*7C
1504296268.06,61486,24.25,73904.8,7.21,2.21,1.85,0,*79
1504296269.27,61487,24.31,73906.0,7.25,2.25,1.75,0,*77
1504296270.47,61488,24.31,73910.0,7.25,2.25,1.75,0,*78
1504296271.69,61489,24.25,73908.0,7.21,2.21,1.63,0,*7E
1504296272.92,61490,24.31,73910.8,7.21,2.13,1.51,0,*76
1504296274.15,61491,24.25,73908.8,7.21,2.17,1.47,0,*74
1504296275.39,61492,24.25,73910.3,7.19,2.09,1.43,0,*77
1504296276.62,61493,24.25,73908.5,7.21,2.13,1.47,0,*72
1504296277.81,61494,24.25,73910.0,7.21,2.21,1.41,0,*72
1504296279.01,61495,24.25,73912.0,7.21,2.21,1.41,0,*73
1504296280.2,61496,24.25,73914.0,7.21,2.21,1.41,0,*70
1504296281.4,61497,24.31,73916.5,7.21,2.13,1.41,0,*70
1504296282.64,61498,24.25,73908.8,7.21,2.17,1.37,0,*7A
1504296283.87,61499,24.25,73912.8,7.21,2.13,1.29,0,*70
1504296285.09,61500,24.25,73908.5,7.21,2.09,1.29,0,*7A
1504296286.34,61501,24.25,73910.0,7.19,2.09,1.25,0,*7C
1504296287.57,61502,24.25,73910.5,7.21,2.13,1.37,0,*7C
1504296288.77,61503,24.25,73912.0,7.21,2.25,1.41,0,*79
1504296290.0,61504,24.25,73912.3,7.21,2.13,1.37,0,*7A
1504296291.26,61505,24.25,73914.3,7.19,2.17,1.37,0,*74
1504296292.46,61506,24.25,73908.3,7.21,2.13,1.41,0,*79
1504296293.69,61507,24.25,73908.0,7.21,2.13,1.37,0,*79
1504296294.95,61508,24.25,73906.0,7.19,2.17,1.37,0,*79
1504296296.14,61509,24.25,73910.5,7.21,2.21,1.41,0,*77
1504296297.37,61510,24.25,73914.8,7.21,2.21,1.51,0,*7E
1504296298.59,61511,24.25,73916.0,7.21,2.21,1.47,0,*78
1504296299.81,61512,24.25,73916.5,7.21,2.21,1.47,0,*7B
1504296301.03,61513,24.25,73918.3,7.21,2.25,1.51,0,*79
1504296302.28,61514,24.25,73922.8,7.19,2.17,1.43,0,*77
1504296303.51,61515,24.25,73922.3,7.21,2.25,1.47,0,*78
1504296304.73,61516,24.25,73918.8,7.21,2.25,1.47,0,*7B
1504296305.93,61517,24.25,73910.8,7.21,2.09,1.41,0,*72
1504296307.16,61518,24.25,73900.5,7.21,2.09,1.47,0,*7B
1504296308.4,61519,24.31,73904.0,7.19,2.09,1.43,0,*75
1504296309.62,61520,24.25,73904.8,7.21,2.21,1.51,0,*7D
1504296310.87,61521,24.31,73906.8,7.19,2.17,1.47,0,*75
1504296312.1,61522,24.25,73902.0,7.21,2.21,1.51,0,*7F
1504296313.34,61523,24.25,73906.5,7.19,2.21,1.47,0,*72
1504296314.58,61524,24.25,73908.3,7.19,2.21,1.55,0,*76
1504296315.81,61525,24.25,73908.3,7.21,2.17,1.59,0,*75
1504296317.04,61526,24.25,73904.8,7.21,2.21,1.51,0,*7B
1504296318.26,61527,24.25,73904.3,7.21,2.21,1.59,0,*72
1504296319.48,61528,24.25,73906.3,7.21,2.25,1.63,0,*70
1504296320.73,61529,24.25,73904.0,7.19,2.17,1.59,0,*72
1504296321.96,61530,24.25,73912.5,7.21,2.25,1.59,0,*70
1504296323.18,61531,24.25,73910.3,7.21,2.13,1.59,0,*74
1504296324.43,61532,24.31,73914.5,7.19,2.09,1.63,0,*7E
1504296325.68,61533,24.25,73908.0,7.19,2.09,1.55,0,*7A
1504296326.9,61534,24.25,73908.3,7.21,2.21,1.51,0,*78
1504296328.15,61535,24.25,73910.5,7.19,2.05,1.43,0,*77
1504296329.37,61536,24.25,73908.3,7.21,2.21,1.51,0,*7A
1504296330.62,61537,24.25,73912.0,7.19,2.17,1.59,0,*7D
1504296331.84,61538,24.25,73914.8,7.21,2.13,1.59,0,*7D
1504296333.07,61539,24.25,73910.8,7.21,2.09,1.51,0,*7F
1504296334.3,61540,24.25,73904.3,7.21,2.01,1.51,0,*79
1504296335.52,61541,24.25,73906.3,7.21,2.05,1.47,0,*7B
1504296336.75,61542,24.25,73906.3,7.21,2.13,1.51,0,*78
1504296337.98,61543,24.25,73906.3,7.21,2.13,1.51,0,*79
1504296339.21,61544,24.31,73912.5,7.21,2.13,1.59,0,*76
1504296340.45,61545,24.25,73916.5,7.19,2.17,1.59,0,*78
1504296341.68,61546,24.25,73916.0,7.21,2.17,1.59,0,*70
1504296342.91,61547,24.25,73914.8,7.21,2.09,1.63,0,*77
1504296344.14,61548,24.25,73910.0,7.21,2.09,1.63,0,*78
1504296345.39,61549,24.25,73912.3,7.19,2.09,1.55,0,*77
1504296346.61,61550,24.25,73914.3,7.21,2.13,1.63,0,*7A
1504296347.84,61551,24.25,73914.3,7.21,2.13,1.63,0,*7B
1504296349.06,61552,24.25,73916.0,7.21,2.21,1.59,0,*70
1504296350.29,61553,24.25,73914.0,7.21,2.09,1.59,0,*7B
1504296351.51,61554,24.25,73912.3,7.21,2.09,1.63,0,*75
1504296352.76,61555,24.25,73910.3,7.19,2.09,1.59,0,*76
1504296353.99,61556,24.25,73918.0,7.21,2.09,1.63,0,*77
1504296355.21,61557,24.25,73916.8,7.21,2.09,1.59,0,*7F
1504296356.43,61558,24.25,73922.0,7.21,2.09,1.59,0,*70
1504296357.66,61559,24.25,73916.5,7.21,2.09,1.63,0,*78
1504296358.89,61560,24.25,73922.0,7.21,2.09,1.63,0,*72
1504296360.11,61561,24.25,73922.5,7.21,2.09,1.59,0,*7A
1504296361.33,61562,24.25,73922.0,7.21,2.09,1.59,0,*79
1504296362.56,61563,24.25,73916.8,7.21,2.09,1.63,0,*71
1504296363.79,61564,24.25,73914.5,7.21,2.09,1.63,0,*76
1504296365.01,61565,24.25,73912.0,7.21,2.09,1.59,0,*7E
1504296366.26,61566,24.25,73914.0,7.19,2.09,1.59,0,*76
1504296367.5,61567,24.25,73918.3,7.19,2.05,1.59,0,*7B
1504296368.73,61568,24.25,73914.5,7.21,2.01,1.59,0,*7B
1504296369.95,61569,24.25,73908.5,7.21,2.01,1.63,0,*73
1504296371.2,61570,24.25,73906.0,7.19,1.97,1.59,0,*75
1504296372.44,61571,24.25,73908.8,7.19,2.05,1.59,0,*7C
1504296373.69,61572,24.25,73910.5,7.19,2.09,1.59,0,*73
1504296374.93,61573,24.25,73906.8,7.19,2.05,1.59,0,*7E
1504296376.18,61574,24.25,73908.3,7.19,2.05,1.59,0,*79
1504296377.4,61575,24.25,73912.3,7.21,2.09,1.59,0,*7F
1504296378.62,61576,24.25,73912.8,7.21,2.01,1.59,0,*74
1504296379.87,61577,24.25,73914.0,7.19,2.05,1.55,0,*76
1504296381.12,61578,24.25,73910.0,7.19,1.93,1.55,0,*75
1504296382.37,61579,24.25,73910.3,7.19,2.05,1.55,0,*78
1504296383.6,61580,24.25,73910.8,7.21,2.01,1.63,0,*74
1504296384.82,61581,24.25,73910.0,7.21,1.97,1.59,0,*70
1504296386.05,61582,24.25,73908.0,7.21,1.97,1.59,0,*73
1504296387.27,61583,24.25,73912.0,7.21,1.93,1.59,0,*76
1504296388.52,61584,24.25,73908.8,7.19,1.93,1.47,0,*75
1504296389.75,61585,24.25,73912.5,7.21,1.97,1.51,0,*7C
1504296390.98,61586,24.25,73910.8,7.21,1.97,1.59,0,*77
1504296392.2,61587,24.25,73910.3,7.19,1.83,1.47,0,*77
1504296393.41,61588,24.25,73912.8,7.19,1.83,1.43,0,*7C
1504296394.63,61589,24.25,73908.3,7.19,1.83,1.47,0,*79
1504296395.85,61590,24.25,73906.3,7.19,1.83,1.47,0,*71
1504296397.1,61591,24.25,73906.0,7.19,1.93,1.47,0,*71
1504296398.33,61592,24.25,73896.5,7.21,1.85,1.47,0,*7E
1504296399.57,61593,24.25,73898.8,7.19,1.89,1.43,0,*7C
1504296400.82,61594,24.25,73896.3,7.19,2.05,1.55,0,*7B
1504296402.03,61595,24.25,73896.3,7.17,2.21,1.71,0,*74
1504296403.24,61596,24.25,73900.3,7.17,2.39,1.79,0,*76
1504296404.49,61597,24.25,73896.3,7.19,2.43,1.71,0,*7C
1504296405.71,61598,24.25,73904.5,7.17,2.43,1.67,0,*7A
1504296406.94,61599,24.25,73908.8,7.17,2.39,1.67,0,*76
1504296408.13,61600,24.25,73908.8,7.17,2.31,1.59,0,*70
1504296409.33,61601,24.25,73910.8,7.17,2.27,1.59,0,*76
1504296410.56,61602,24.25,73914.0,7.17,2.17,1.59,0,*76
1504296411.78,61603,24.25,73912.5,7.17,2.09,1.67,0,*75
1504296413.0,61604,24.25,73914.8,7.17,2.09,1.71,0,*75
1504296414.23,61605,24.25,73914.3,7.17,1.93,1.55,0,*72
1504296415.45,61606,24.25,73910.8,7.17,1.93,1.55,0,*71
1504296416.7,61607,24.25,73906.0,7.19,1.93,1.55,0,*7E
1504296417.93,61608,24.25,73904.3,7.15,1.79,1.43,0,*7E
1504296419.13,61609,24.25,73904.5,7.17,1.79,1.47,0,*79
1504296420.32,61610,24.25,73904.5,7.17,1.83,1.47,0,*74
1504296421.53,61611,24.25,73906.5,7.17,1.79,1.55,0,*73
1504296422.75,61612,24.25,73906.3,7.17,1.71,1.47,0,*7B
1504296423.97,61613,24.25,73908.3,7.17,1.67,1.47,0,*7D
1504296425.17,61614,24.25,73912.3,7.17,1.79,1.59,0,*7A
1504296426.39,61615,24.25,73914.0,7.17,1.97,1.71,0,*71
1504296427.62,61616,24.25,73910.3,7.17,1.93,1.67,0,*71
1504296428.84,61617,24.25,73912.8,7.15,1.79,1.63,0,*72
1504296430.05,61618,24.25,73914.3,7.17,1.79,1.55,0,*7A
1504296431.24,61619,24.25,73908.8,7.17,1.83,1.59,0,*72
1504296432.47,61620,24.25,73904.8,7.15,1.79,1.51,0,*77
1504296433.7,61621,24.25,73910.8,7.15,1.75,1.55,0,*7E
1504296434.92,61622,24.25,73908.0,7.17,1.71,1.59,0,*77
1504296436.12,61623,24.25,73908.8,7.17,1.83,1.59,0,*7B
1504296437.32,61624,24.25,73912.0,7.17,1.83,1.67,0,*71
1504296438.52,61625,24.25,73912.8,7.17,1.79,1.67,0,*75
1504296439.74,61626,24.25,73918.3,7.17,1.67,1.63,0,*7D
1504296440.97,61627,24.25,73916.8,7.15,1.75,1.63,0,*7D
1504296442.19,61628,24.25,73914.8,7.17,1.89,1.67,0,*77
1504296443.45,61629,24.25,73910.8,7.15,1.85,1.67,0,*78
1504296444.68,61630,24.25,73910.5,7.15,1.79,1.67,0,*73
1504296445.91,61631,24.25,73908.8,7.15,1.79,1.67,0,*72
1504296447.16,61632,24.25,73914.0,7.15,1.85,1.67,0,*72
1504296448.36,61633,24.25,73916.3,7.17,1.79,1.63,0,*76
1504296449.56,61634,24.25,73914.5,7.17,1.83,1.67,0,*70
1504296450.79,61635,24.25,73918.8,7.15,1.79,1.63,0,*72
1504296452.02,61636,24.25,73916.3,7.15,1.83,1.63,0,*74
1504296453.22,61637,24.25,73918.0,7.17,1.83,1.67,0,*73
1504296454.42,61638,24.25,73912.3,7.17,1.79,1.67,0,*79
1504296455.64,61639,24.25,73912.0,7.17,1.71,1.59,0,*7D
1504296456.86,61640,24.25,73916.3,7.17,1.71,1.59,0,*73
1504296458.08,61641,24.25,73912.3,7.17,1.71,1.59,0,*72
1504296459.3,61642,24.25,73914.5,7.17,1.71,1.59,0,*71
1504296460.53,61643,24.25,73918.5,7.17,1.71,1.55,0,*7C
1504296461.75,61644,24.25,73916.3,7.17,1.71,1.59,0,*77
1504296462.97,61645,24.25,73916.0,7.17,1.67,1.59,0,*71
1504296464.19,61646,24.25,73912.8,7.17,1.59,1.47,0,*70
1504296465.41,61647,24.25,73918.5,7.17,1.47,1.43,0,*7A
1504296466.65,61648,24.25,73922.5,7.17,1.37,1.33,0,*75
1504296467.91,61649,24.25,73918.5,7.15,1.33,1.33,0,*72
1504296469.15,61650,24.25,73912.5,7.17,1.37,1.33,0,*7C
1504296470.41,61651,24.25,73918.0,7.15,1.21,1.29,0,*73
1504296471.68,61652,24.25,73918.3,7.15,1.29,1.29,0,*78
1504296472.91,61653,24.25,73926.8,7.17,1.33,1.33,0,*7B
1504296474.18,61654,24.25,73916.0,7.15,1.21,1.29,0,*76
1504296475.44,61655,24.25,73914.5,7.15,1.13,1.13,0,*7F
1504296476.67,61656,24.25,73916.5,7.17,1.21,1.25,0,*7A
1504296477.91,61657,24.25,73912.8,7.17,1.21,1.25,0,*7B
1504296479.17,61658,24.25,73908.5,7.15,1.21,1.29,0,*7A
1504296480.41,61659,24.25,73910.3,7.17,1.13,1.09,0,*7A
1504296481.67,61660,24.25,73912.8,7.15,1.13,1.13,0,*79
1504296482.9,61661,24.25,73914.3,7.15,1.05,1.13,0,*7F
1504296484.13,61662,24.25,73910.5,7.15,1.01,1.13,0,*78
1504296485.34,61663,24.25,73912.8,7.15,1.01,1.01,0,*7A
1504296486.55,61664,24.25,73918.5,7.15,1.01,1.01,0,*7D
1504296487.75,61665,24.25,73918.5,7.15,1.01,1.01,0,*7C
1504296488.97,61666,24.25,73920.0,7.15,0.95,1.05,0,*47
1504296490.2,61667,24.25,73918.5,7.15,0.95,1.05,0,*46
1504296491.43,61668,24.25,73916.8,7.15,0.91,1.05,0,*4D
1504296492.66,61669,24.25,73916.0,7.15,0.91,1.01,0,*48
1504296493.86,61670,24.25,73920.8,7.13,0.91,1.05,0,*42
1504296495.05,61671,24.25,73922.8,7.13,0.71,1.01,0,*49
1504296496.26,61672,24.25,73926.8,7.13,0.71,0.95,0,*76
1504296497.47,61673,24.25,73928.0,7.13,0.63,0.87,0,*77
1504296498.69,61674,24.25,73928.5,7.15,0.67,1.05,0,*49
1504296499.9,61675,24.25,73926.3,7.15,0.67,1.01,0,*4C
1504296501.12,61676,24.25,73924.8,7.15,0.67,1.01,0,*4F
1504296502.31,61677,24.25,73926.8,7.17,0.59,1.05,0,*45
1504296503.53,61678,24.25,73930.0,7.15,0.59,1.01,0,*4C
1504296504.74,61679,24.25,73928.0,7.15,0.43,0.91,0,*7E
1504296505.98,61680,24.25,73930.3,7.15,0.33,0.95,0,*7B
1504296507.18,61681,24.25,73930.8,7.17,0.33,0.95,0,*78
1504296508.39,61682,24.25,73932.8,7.13,0.29,0.95,0,*74
1504296509.58,61683,24.25,73936.0,7.13,0.25,1.01,0,*45
1504296510.8,61684,24.25,73934.0,7.15,0.33,1.05,0,*47
1504296512.01,61685,24.25,73938.5,7.15,0.33,1.05,0,*46
1504296513.26,61686,24.25,73932.0,7.15,0.21,1.13,0,*41
1504296514.51,61687,24.25,73934.8,7.15,0.21,1.21,0,*41
1504296515.75,61688,24.25,73932.5,7.15,0.21,1.29,0,*46
1504296516.97,61689,24.25,73930.8,7.15,0.29,1.41,0,*41
1504296518.21,61690,24.25,73932.5,7.15,0.37,1.55,0,*43
1504296519.46,61691,24.25,73934.3,7.15,0.47,1.67,0,*44
1504296520.71,61692,24.25,73932.8,7.15,0.47,1.85,0,*4B
1504296521.96,61693,24.25,73942.5,7.15,0.55,2.01,0,*46
1504296523.18,61694,24.25,73942.3,7.13,0.55,2.17,0,*40
1504296524.43,61695,24.25,73940.0,7.15,0.59,2.47,0,*4E
1504296525.66,61696,24.25,73936.8,7.15,0.55,2.61,0,*45
1504296526.9,61697,24.25,73934.5,7.15,0.55,2.61,0,*44
1504296528.12,61698,24.25,73932.8,7.15,0.33,2.61,0,*4B
1504296529.35,61699,24.25,73926.5,7.15,0.09,2.59,0,*78